www.pogodaiklimat.ru

Погода и климат >> Архив погоды >> Австралия >> Западная Австралия >> Фицрой-Кроссинг


ПОГОДА в Фицрой-Кроссинге

  • Прогноз погоды в Фицрой-Кроссинге
  • Монитор погоды в Фицрой-Кроссинге

АРХИВ ПОГОДЫ в Фицрой-Кроссинге

Время (UTC), дата Ветер
(напр.,м/с)
 
Видим.   Явления Облачность Т
(С)
Тd
(С)
f
(%)
Тe
(С)
Тes
(С)
Комфортность P
(гПа)
Po
(гПа)
Тmin
(С)
Tmax
(С)
R
(мм)
R24
(мм)
S
(см)
07 17.03 С 2 н/о н/о +36.9 +19.8 37 +42 +42 опасность
перегрева
1004.5 991.7
09 17.03 В 12 н/о н/о +27.6 +18.9 59 +33 +33 очень
душно
1008.4 995.6
10 17.03 СЗ 4 н/о н/о +25.0 +21.9 83 +32 +32 очень
душно
1008.3 995.5
12 17.03 СЗ 4 н/о н/о +25.3 +22.8 86 +33 +33 очень
душно
1009.1 996.3
13 17.03 ЮЗ 5 н/о {туман} н/о +26.2 +22.7 81 +35 +35 очень
душно
1010.5 997.6 +38.1
15 17.03 ЮЗ 2 н/о н/о +25.5 +22.0 81 +33 +33 очень
душно
1009.6 996.8
16 17.03 ЮВ 3 н/о н/о +25.4 +22.1 82 +33 +33 очень
душно
1009.9 997.0
18 17.03 СЗ 3 н/о н/о +24.9 +22.0 84 +32 +32 очень
душно
1009.2 996.4
19 17.03 штиль 0 н/о н/о +25.1 +22.0 83 +32 +32 очень
душно
1008.8 996.0
21 17.03 штиль 0 н/о н/о +24.4 +21.9 86 +31 +31 очень
душно
1009.2 996.4
22 17.03 штиль 0 н/о н/о +24.2 +22.1 88 +31 +31 очень
душно
1009.1 996.3
00 18.03 ЮВ 1 н/о н/о +29.0 +21.7 65 +37 +37 очень
душно
1009.9 997.0
01 18.03 Ю 4 н/о н/о +30.1 +20.6 57 +37 +37 очень
душно
1010.1 997.2 +24.0
03 18.03 Ю 5 н/о н/о +32.2 +21.1 52 +40 +40 очень
душно
1008.8 996.0
04 18.03 Ю 5 н/о н/о +33.9 +20.6 46 +41 +41 опасность
перегрева
1007.7 994.9
06 18.03 ЮВ 3 н/о н/о +36.4 +18.9 36 +41 +41 опасность
перегрева
1005.7 992.9
07 18.03 ЮВ 3 н/о н/о +36.7 +18.3 34 +41 +41 опасность
перегрева
1004.7 991.9
09 18.03 В 2 н/о н/о +35.5 +17.7 35 +39 +39 очень
душно
1004.7 991.9
10 18.03 С 11 н/о н/о +30.7 +18.8 49 +36 +36 очень
душно
1006.9 994.1
12 18.03 С 2 н/о н/о +29.0 +20.4 60 +36 +36 очень
душно
1007.6 994.8
13 18.03 штиль 0 н/о н/о +29.5 +20.6 59 +37 +37 очень
душно
1007.5 994.7 +37.5
15 18.03 С 3 н/о н/о +28.7 +20.4 61 +35 +35 очень
душно
1007.6 994.8
16 18.03 С 3 н/о н/о +28.3 +21.1 65 +36 +36 очень
душно
1007.3 994.5
18 18.03 штиль 0 н/о н/о +27.8 +22.1 71 +36 +36 очень
душно
1005.7 992.9
19 18.03 ЮЗ 3 н/о н/о +27.6 +21.9 71 +36 +36 очень
душно
1006.1 993.3
21 18.03 штиль 0 н/о н/о +27.1 +22.7 77 +36 +36 очень
душно
1006.8 994.0
22 18.03 З 2 н/о н/о +27.3 +22.0 73 +35 +35 очень
душно
1007.4 994.6
00 19.03 З 4 н/о н/о +30.4 +21.8 60 +39 +39 очень
душно
1009.1 996.3
01 19.03 СЗ 4 н/о н/о +31.6 +22.0 57 +40 +40 очень
душно
1008.9 996.1 +27.1
03 19.03 СВ 2 н/о н/о +34.8 +20.7 44 +42 +42 опасность
перегрева
1007.5 994.7
04 19.03 С 3 н/о н/о +36.2 +20.4 40 +43 +43 опасность
перегрева
1006.5 993.7
06 19.03 С 4 н/о н/о +37.9 +17.3 30 +41 +41 опасность
перегрева
1004.4 991.6
07 19.03 С 4 н/о н/о +38.1 +15.8 27 +40 +40 очень
душно
1004.2 991.4
09 19.03 СВ 3 н/о н/о +36.3 +16.5 31 +39 +39 очень
душно
1004.4 991.6
10 19.03 С 2 н/о н/о +34.6 +17.3 36 +38 +38 очень
душно
1004.9 992.1
12 19.03 СЗ 2 н/о н/о +32.0 +19.3 47 +38 +38 очень
душно
1006.5 993.7
13 19.03 СЗ 3 н/о н/о +31.2 +21.4 56 +39 +39 очень
душно
1006.9 994.1 +39.1
15 19.03 СЗ 4 н/о н/о +29.7 +23.4 69 +40 +40 очень
душно
1006.4 993.6
16 19.03 СЗ 3 н/о н/о +28.6 +22.1 68 +37 +37 очень
душно
1006.1 993.3
18 19.03 СЗ 3 н/о н/о +27.2 +20.8 68 +34 +34 очень
душно
1005.8 993.0
19 19.03 З 2 н/о н/о +26.8 +21.6 73 +34 +34 очень
душно
1005.8 993.0
21 19.03 З 3 н/о н/о +26.1 +22.4 80 +34 +34 очень
душно
1006.9 994.1
22 19.03 штиль 0 н/о н/о +26.1 +22.8 82 +35 +35 очень
душно
1007.5 994.7
00 20.03 СЗ 4 н/о н/о +30.7 +22.0 60 +39 +39 очень
душно
1008.9 996.1
01 20.03 СЗ 3 н/о н/о +32.2 +21.4 53 +40 +40 очень
душно
1009.6 996.8 +26.0
03 20.03 З 4 н/о н/о +35.4 +22.0 46 +44 +44 опасность
перегрева
1008.3 995.5
04 20.03 ЮЗ 4 н/о н/о +36.3 +21.7 43 +44 +44 опасность
перегрева
1007.1 994.3
06 20.03 С 1 н/о н/о +36.5 +19.9 38 +42 +42 опасность
перегрева
1005.6 992.8
07 20.03 З 4 н/о н/о +36.5 +20.7 40 +43 +43 опасность
перегрева
1005.5 992.7
09 20.03 З 5 н/о н/о +35.3 +21.6 45 +43 +43 опасность
перегрева
1005.7 992.9
10 20.03 З 4 н/о н/о +32.8 +21.6 52 +41 +41 опасность
перегрева
1006.5 993.7
12 20.03 З 4 н/о н/о +30.9 +22.2 60 +40 +40 очень
душно
1007.9 995.1
13 20.03 З 3 н/о н/о +30.4 +22.0 61 +39 +39 очень
душно
1007.9 995.1 +37.7
15 20.03 СЗ 6 н/о н/о +29.1 +22.1 66 +38 +38 очень
душно
1007.8 995.0
16 20.03 СЗ 4 н/о н/о +28.1 +21.9 69 +36 +36 очень
душно
1007.3 994.5
18 20.03 З 3 н/о н/о +27.2 +22.2 74 +35 +35 очень
душно
1006.8 994.0
19 20.03 штиль 0 н/о н/о +26.7 +22.3 77 +35 +35 очень
душно
1006.7 993.9
21 20.03 штиль 0 н/о н/о +26.3 +22.8 81 +35 +35 очень
душно
1007.9 995.1
22 20.03 штиль 0 н/о н/о +26.3 +23.0 82 +35 +35 очень
душно
1008.4 995.6
00 21.03 СЗ 4 н/о н/о +30.7 +22.3 61 +40 +40 очень
душно
1009.0 996.2
01 21.03 СЗ 4 н/о н/о +33.0 +21.2 50 +41 +41 опасность
перегрева
1009.0 996.2 +26.2
03 21.03 ЮВ 3 н/о н/о +36.4 +21.4 42 +44 +44 опасность
перегрева
1007.9 995.1
04 21.03 ЮЗ 4 н/о н/о +36.7 +20.5 39 +43 +43 опасность
перегрева
1006.9 994.1
06 21.03 Ю 3 н/о н/о +38.3 +20.1 35 +44 +44 опасность
перегрева
1005.0 992.2
07 21.03 Ю 3 н/о н/о +37.6 +19.5 35 +43 +43 опасность
перегрева
1004.7 991.9
09 21.03 З 4 н/о н/о +37.3 +19.3 35 +42 +42 опасность
перегрева
1004.5 991.7
10 21.03 З 4 н/о н/о +34.6 +20.9 45 +42 +42 опасность
перегрева
1005.2 992.4
12 21.03 З 5 н/о н/о +32.6 +21.8 53 +41 +41 опасность
перегрева
1006.9 994.1
13 21.03 З 6 н/о н/о +32.0 +22.4 57 +41 +41 опасность
перегрева
1007.3 994.5 +39.1
15 21.03 З 5 н/о н/о +29.9 +23.3 68 +40 +40 очень
душно
1007.0 994.2
16 21.03 СЗ 5 н/о н/о +29.2 +23.2 70 +39 +39 очень
душно
1006.6 993.8
18 21.03 З 4 н/о н/о +28.2 +23.8 77 +39 +39 очень
душно
1006.7 993.9
22 21.03 СЗ 2 н/о н/о +26.6 +23.9 85 +37 +37 очень
душно
1007.7 994.9
01 22.03 З 3 н/о н/о +32.3 +23.0 58 +42 +42 опасность
перегрева
1008.5 995.7 +26.5
03 22.03 З 3 н/о н/о +35.4 +22.4 47 +44 +44 опасность
перегрева
1007.3 994.5
04 22.03 З 4 н/о н/о +37.0 +22.7 44 +46 +46 опасность
перегрева
1006.1 993.3
06 22.03 З 4 н/о н/о +38.3 +20.6 36 +44 +44 опасность
перегрева
1004.3 991.5
07 22.03 ЮЗ 3 н/о н/о +39.1 +20.8 35 +45 +45 опасность
перегрева
1003.7 990.9
09 22.03 ЮЗ 1 н/о н/о +28.3 +22.5 71 +37 +37 очень
душно
1004.3 991.5
10 22.03 СЗ 4 н/о {туман} н/о +28.0 +23.4 76 +38 +38 очень
душно
1005.3 992.5
12 22.03 СЗ 5 н/о н/о +26.8 +20.9 70 +34 +34 очень
душно
1007.3 994.5
13 22.03 СЗ 2 н/о {туман} н/о +26.6 +20.7 70 +33 +33 очень
душно
1007.5 994.7 +39.8
15 22.03 С 2 н/о н/о +26.2 +21.4 75 +33 +33 очень
душно
1007.0 994.2
16 22.03 СЗ 2 н/о н/о +24.9 +22.2 85 +32 +32 очень
душно
1006.4 993.6
18 22.03 штиль 0 н/о н/о +25.9 +22.6 82 +34 +34 очень
душно
1005.4 992.6
19 22.03 С 3 н/о н/о +25.2 +22.9 87 +33 +33 очень
душно
1004.9 992.1
21 22.03 штиль 0 н/о н/о +25.2 +23.6 91 +34 +34 очень
душно
1005.2 992.4
22 22.03 штиль 0 н/о н/о +25.2 +23.8 92 +34 +34 очень
душно
1005.6 992.8
00 23.03 З 5 н/о н/о +29.0 +24.3 76 +41 +41 опасность
перегрева
1006.9 994.1
01 23.03 З 4 н/о н/о +30.3 +23.7 68 +41 +41 опасность
перегрева
1007.3 994.5 +23.8
03 23.03 З 4 н/о н/о +33.1 +23.1 56 +44 +44 опасность
перегрева
1006.6 993.8
04 23.03 З 5 н/о {туман} н/о +35.1 +22.4 48 +44 +44 опасность
перегрева
1005.7 992.9
06 23.03 З 5 н/о н/о +36.5 +21.5 42 +44 +44 опасность
перегрева
1004.1 991.3
07 23.03 З 5 н/о {туман} н/о +36.2 +20.8 41 +43 +43 опасность
перегрева
1003.2 990.4
09 23.03 СЗ 5 н/о н/о +35.1 +21.4 45 +43 +43 опасность
перегрева
1003.3 990.5
10 23.03 З 4 н/о н/о +32.9 +21.4 51 +41 +41 опасность
перегрева
1003.6 990.8
12 23.03 СЗ 6 н/о н/о +31.3 +21.8 57 +40 +40 очень
душно
1005.6 992.8
13 23.03 СЗ 5 н/о н/о +30.2 +21.3 59 +38 +38 очень
душно
1006.3 993.5 +37.1
15 23.03 С 4 н/о н/о +27.8 +21.3 68 +35 +35 очень
душно
1006.0 993.2
16 23.03 СЗ 3 н/о н/о +27.0 +21.7 73 +35 +35 очень
душно
1005.6 992.8
18 23.03 СЗ 4 н/о н/о +27.3 +22.7 76 +36 +36 очень
душно
1004.6 991.8
19 23.03 СЗ 5 н/о н/о +27.1 +23.6 81 +37 +37 очень
душно
1004.7 991.9
21 23.03 З 4 н/о н/о +26.6 +23.5 83 +36 +36 очень
душно
1005.5 992.7
22 23.03 З 3 н/о н/о +26.3 +23.2 83 +35 +35 очень
душно
1006.1 993.3
00 24.03 З 7 н/о н/о +29.9 +23.1 67 +40 +40 очень
душно
1007.3 994.5
01 24.03 СЗ 4 н/о н/о +31.6 +22.9 60 +42 +42 опасность
перегрева
1007.6 994.8 +26.3
03 24.03 З 4 н/о н/о +34.2 +21.9 49 +43 +43 опасность
перегрева
1006.2 993.4
04 24.03 СЗ 4 н/о н/о +34.5 +21.2 46 +42 +42 опасность
перегрева
1005.1 992.3

 

Местоположение метеостанции Фицрой-Кроссинг (Западная Австралия, Австралия): широта -18.18 долгота 125.56 высота над уровнем моря 115 м.

В архиве по умолчанию представлена погода в Фицрой-Кроссинге за последнюю неделю. Архивные данные за месяц целиком и за предыдущие месяцы, начиная с января 2011 года, Вы можете получить, выбрав интересующий диапазон дат из раскрывающегося списка и нажав кнопку "Ввод!".


*Определитесь, кто Вы:
робот инопланетянин человек

Внимание! Время в таблицах - всемирное. Для получения местного времени необходимо прибавить поправку, которая равна 8 ч.

Смотрите также архив погоды в соседних городах и на ближайших метеорологических станциях:

Погода на Базе ВВС Curtin (Западная Австралия, Австралия) (196 км)
Погода в Дерби (Северная территория, Австралия) (221 км)
Погода в Холс Крик (Западная Австралия, Австралия) (222 км)
Погода в Робак Запад (Западная Австралия, Австралия) (344 км)
Погода в Аэропорту Аргайл (Западная Австралия, Австралия) (352 км)
Погода в Бруме (Западная Австралия, Австралия) (353 км)
Погода на Острове Адель (Западная Австралия, Австралия) (392 км)
Погода в Уиндеме (Западная Австралия, Австралия) (406 км)
Погода в Кунунарре (Западная Австралия, Австралия) (428 км)
Погода в Калумбуру (Западная Австралия, Австралия) (447 км)

Пояснения к столбцам:

Ветер - указаны скорость ветра в м/с - средняя за 10 мин, порывы в срок и между сроками (в фигурных скобках) и направление, откуда дует ветер: С - северный, СВ - северо-восточный, В - восточный, ЮВ - юго-восточный, Ю - южный, ЮЗ - юго-западный, З - западный, СЗ - северо-западный.
Видимость - горизонтальная дальность видимости в метрах или километрах. При видимости от 1 до 10 км при отсутствии осадков обычно наблюдается дымка, при ухудшении видимости до 1 км и менее - туман. В сухую погоду видимость может ухудшаться дымом, пылью или мглою.
Явления - указаны атмосферные явления, наблюдавшиеся в срок или в последний час перед сроком; фигурными скобками обозначены явления, наблюдавшиеся между сроками (за 1-3 часа до срока); квадратными скобками обозначены град или гололедные отложения с указанием их диаметра в мм.
Облачность - указаны через наклонную черту общая и нижняя облачность в баллах и высота нижней границы облаков в метрах; квадратными скобками обозначены формы облаков: Ci - перистые, Cs - перисто-слоистые, Cc - перисто-кучевые, Ac - высококучевые, As - высокослоистые, Sc - слоисто-кучевые, Ns - слоисто-дождевые, Cu - кучевые, Cb - кучево-дождевые. Подробнее классификацию облаков см. в Атласе облаков (PDF).
T - Температура воздуха - температура, измеренная на высоте 2 м над землей.
Td - Температура точки росы - температура, при понижении до которой содержащийся в воздухе водяной пар достигнет насыщения.
f - Относительная влажность воздуха - влажноcть воздуха, измеренная на высоте 2 м над землей.
Te - Эффективная температура - температура, которую ощущает одетый по сезону человек в тени. Характеристика душности погоды. При расчете учитывается влияние влажности воздуха и скорости ветра на теплоощущения человека.
Tes - Эффективная температура на солнце - температура, которую ощущает человек, с поправкой на солнечный нагрев. Характеристика знойности погоды. Зависит от высоты солнца над горизонтом, облачности и скорости ветра. Ночью, в пасмурную погоду, а также при ветре 12 м/с и более поправка равна нулю.
P - Атмосферное давление - приведенное к уровню моря атмосферное давление.
Po - Атмосферное давление - измеренное на уровне метеостанции атмосферное давление.
Tmin - Минимальная температура - минимум температуры воздуха на высоте 2 м над землей.
Tmax - Максимальная температура - максимум температуры воздуха на высоте 2 м над землей.
R - Количество осадков - Количество выпавших осадков за период времени, мм. При наведении курсора мыши на число - период времени, за который выпало указанное количество осадков.
R24 - Количество осадков - Количество выпавших осадков за 24 часа, мм.
S - Снежный покров - Высота снежного покрова, см. При наведении курсора мыши на число - состояние снежного покрова и степень покрытия местности в баллах.